Theta_e
307 308 309 309 310 310 311 311 309 308 305 303 301 301 301 300 300 300 299 299 299 299 298 297 296 295 295 294 294 294 294 293 293 292 292 291 291 291 291 291 291 290
307 307 308 309 309 310 310 310 309 307 304 302 301 301 300 299 299 299 299 298 298 297 296 295 295 294 294 294 293 293 293 293 292 292 291 290 290 290 290 290 290 289
306 307 308 308 309 309 310 309 308 305 303 301 300 300 299 299 299 298 298 297 297 296 295 294 294 293 293 293 293 292 292 292 291 291 290 290 289 289 289 289 288 288
306 307 307 308 308 309 309 309 307 304 301 300 300 299 299 298 298 298 297 296 295 294 294 293 293 293 292 292 292 292 292 291 290 290 289 289 289 289 288 288 287 287
305 306 306 307 307 308 308 308 306 303 301 299 299 298 298 297 297 297 296 295 294 294 293 292 292 292 292 291 291 291 291 290 290 289 289 288 288 288 287 287 286 286
304 304 305 305 305 306 306 306 304 302 300 299 298 298 297 296 296 296 295 294 293 293 292 291 291 291 291 291 291 291 290 289 289 288 287 287 287 286 286 286 285 285
303 303 303 303 303 303 304 303 302 300 298 298 297 297 296 296 295 295 294 293 292 291 291 290 290 290 290 290 290 290 289 288 287 287 287 286 286 286 285 285 285 285
303 302 302 302 302 301 301 301 300 298 297 297 297 297 296 295 294 293 292 291 291 290 290 289 289 289 290 290 290 289 288 287 287 286 286 286 285 285 285 284 284 284
302 301 301 301 300 300 299 299 298 297 297 297 297 296 295 294 293 292 291 290 289 289 289 288 289 289 289 289 289 288 287 286 286 285 285 285 284 284 284 284 284 284
301 301 300 300 299 299 298 297 297 297 296 296 295 295 293 292 292 291 290 289 289 288 288 288 288 289 289 289 288 287 286 285 285 284 284 284 284 284 284 283 283 283
300 300 299 299 299 298 297 297 296 296 296 295 294 293 292 291 290 290 289 288 288 287 287 287 288 289 289 288 287 286 285 284 284 284 283 283 283 283 283 283 283 283
298 298 298 298 298 297 296 296 296 295 295 294 293 292 291 290 289 289 288 288 287 287 287 288 289 289 288 287 286 285 284 284 284 283 283 283 283 283 283 283 282 282
297 297 296 296 296 296 295 295 295 294 294 293 291 290 290 289 288 288 287 287 287 287 288 288 289 289 288 286 285 284 284 283 283 283 283 283 283 282 282 282 282 282
296 295 295 295 294 294 294 294 294 293 292 291 290 289 289 288 288 287 287 287 287 288 289 289 289 288 287 285 284 284 283 283 283 283 283 283 282 282 282 282 282 282
295 294 293 293 293 293 293 293 293 292 290 289 289 288 288 287 287 287 287 288 288 289 289 289 288 287 285 284 283 283 283 283 283 283 283 283 282 282 282 282 282 282
294 293 293 292 292 292 292 292 291 290 289 289 288 287 287 287 288 288 288 289 289 289 289 288 287 286 284 283 283 283 283 283 283 283 283 282 282 282 282 282 282 281
293 292 292 291 291 291 291 291 290 289 289 288 288 287 288 288 289 289 289 289 288 288 288 287 286 284 283 283 283 283 283 283 283 282 282 282 282 282 282 281 281 281
292 291 290 290 290 290 290 290 289 289 288 288 288 288 288 289 289 288 288 288 288 287 287 285 284 283 283 283 283 283 283 283 283 282 282 282 282 281 281 281 281 281
291 290 289 289 289 289 289 289 288 288 288 288 288 289 289 288 288 288 287 287 287 286 285 284 283 283 283 283 283 283 283 282 282 282 282 282 281 281 281 281 280 280
290 289 289 288 288 288 288 288 288 288 288 288 288 288 288 288 287 287 287 286 285 284 283 283 283 283 282 282 282 282 282 282 282 282 281 281 281 281 280 280 280 280
289 288 288 288 288 287 287 287 287 287 287 287 287 287 287 287 287 286 285 284 284 283 283 282 282 282 282 282 282 282 282 281 281 281 281 281 280 280 280 280 279 279
288 287 288 288 288 287 287 287 287 287 287 287 287 287 286 286 285 284 284 283 283 282 282 282 282 282 282 282 281 281 281 281 281 281 280 280 280 280 279 279 279 278
287 287 287 288 288 288 288 287 287 287 286 286 286 286 285 284 284 283 282 282 282 282 282 282 282 282 281 281 281 281 280 280 280 280 280 280 280 279 279 279 278 278
287 287 287 287 287 288 287 287 286 286 286 285 285 285 284 283 283 282 282 282 282 282 282 281 281 281 281 280 280 280 280 280 280 280 280 280 279 279 279 279 278 278
287 286 287 287 287 287 287 286 285 285 285 285 284 284 283 282 282 282 282 281 281 281 281 281 280 280 280 280 280 280 279 279 279 279 279 279 279 279 279 278 278 277
286 286 286 286 287 286 285 285 285 285 284 284 283 283 282 282 282 282 281 281 281 280 280 280 280 280 279 279 279 279 279 279 279 279 279 279 279 279 278 278 277 277
Wind_Speed
26 27 27 28 27 26 25 24 25 27 28 29 29 29 29 28 26 24 23 22 21 20 19 18 17 16 15 14 12 12 11 11 10 10 10 9 8 7 5 5 4 4
24 26 27 27 27 26 26 26 27 28 28 29 29 29 29 27 26 24 23 22 21 20 19 17 17 16 15 14 13 12 11 11 10 10 9 8 6 5 4 4 4 4
22 26 27 27 27 27 27 26 27 28 28 29 29 29 28 27 25 24 22 21 20 19 18 17 16 15 14 13 13 12 11 11 10 9 7 6 4 3 3 3 3 3
22 25 27 28 28 28 28 27 27 28 28 28 29 28 27 25 24 23 22 21 19 19 18 17 16 16 15 14 13 12 11 9 8 7 5 4 3 3 3 3 3 3
23 25 27 28 29 29 28 27 27 27 28 28 28 26 25 24 24 23 22 21 19 18 18 17 17 15 14 13 12 10 9 8 7 6 4 4 3 3 3 3 3 3
24 26 27 28 29 29 28 28 27 27 27 28 27 25 24 24 24 23 22 21 20 19 18 18 17 15 14 12 11 10 8 7 6 5 4 3 3 3 3 3 2 2
24 26 27 28 28 29 28 27 27 27 27 27 27 26 26 25 24 23 22 21 21 20 19 18 16 15 14 12 10 9 7 6 5 4 3 3 3 3 3 2 2 2
24 26 27 28 29 29 29 28 27 27 27 28 28 27 26 25 24 24 23 23 22 21 19 18 16 14 13 11 9 8 6 5 4 4 4 4 3 3 3 2 3 3
24 26 27 28 29 29 29 28 27 27 28 28 27 27 27 26 25 24 24 23 22 20 18 17 15 13 11 10 8 6 5 5 4 4 4 4 3 3 3 2 3 3
24 26 27 28 29 29 28 27 27 28 28 27 27 27 28 27 26 25 23 22 20 19 17 15 14 12 10 9 7 6 5 5 5 4 4 4 3 3 3 2 3 3
25 26 27 27 28 28 28 27 28 28 27 27 27 27 27 27 25 24 22 21 19 17 16 14 12 10 8 7 6 5 5 5 4 4 4 3 3 3 2 2 2 3
25 26 26 26 27 27 28 28 28 28 28 28 27 27 27 26 25 24 22 20 18 16 14 12 10 9 8 6 6 5 5 4 4 4 3 3 2 2 2 2 3 3
25 26 26 26 27 28 29 29 29 28 28 28 27 26 26 26 25 23 21 19 17 15 13 11 10 8 7 6 6 5 5 4 4 4 3 2 2 2 2 3 3 5
25 26 26 27 28 29 30 30 29 28 28 28 27 27 26 25 23 22 20 18 16 14 12 10 9 8 7 6 6 6 5 5 4 3 3 2 2 3 3 4 5 6
26 26 26 27 29 30 30 30 29 29 28 28 28 27 25 24 22 20 18 16 15 13 12 10 9 8 7 7 7 6 6 4 3 3 2 2 3 4 5 6 7 8
26 26 27 28 30 31 31 30 29 29 29 28 28 26 24 22 21 19 17 16 14 13 12 10 9 8 8 8 7 6 5 4 3 3 3 4 5 6 7 8 9 10
25 27 28 30 31 31 31 30 29 29 29 28 27 25 24 22 20 19 17 16 14 13 12 10 9 9 9 8 7 5 4 3 3 3 4 5 6 7 9 10 10 12
25 27 29 31 32 31 30 29 29 29 28 27 26 24 23 22 20 19 17 16 14 13 11 10 10 9 9 8 6 5 4 4 4 5 6 7 8 9 10 11 12 13
25 28 30 31 31 30 29 29 28 28 28 26 26 24 23 22 20 18 17 15 14 12 11 11 10 9 9 7 6 5 5 5 5 6 7 8 9 10 11 12 13 14
26 29 31 31 30 29 28 28 28 28 27 26 25 24 22 21 19 17 16 14 13 12 11 11 10 9 8 7 6 5 5 6 6 7 8 10 10 11 13 14 14 15
27 30 31 31 30 29 28 28 28 28 27 25 24 22 21 20 18 16 15 13 12 12 11 10 9 8 7 6 6 6 6 7 8 8 9 11 12 13 14 15 15 16
28 30 31 30 30 29 29 29 28 27 26 24 23 22 20 18 17 15 14 13 12 12 11 10 9 8 7 7 6 7 7 8 9 10 11 12 13 14 15 15 16 17
29 30 30 30 30 29 29 29 29 27 25 23 22 20 19 17 15 14 13 12 12 11 10 10 9 8 8 8 8 8 9 10 11 12 13 14 14 15 16 17 18 19
28 29 29 29 30 30 30 29 28 26 24 22 21 19 17 16 14 13 13 12 12 11 10 9 9 9 9 9 9 9 10 11 12 13 15 16 16 17 18 19 19 20
28 29 29 30 30 30 30 29 26 24 22 21 20 18 16 15 14 13 12 12 11 11 10 10 10 9 9 10 10 11 12 13 14 15 16 17 18 19 20 21 21 22
29 30 30 30 30 30 28 26 24 22 21 20 19 17 15 14 13 12 12 11 11 11 10 10 10 10 10 11 12 13 14 15 16 17 18 19 20 21 22 22 23 24
Wind_Direction
244 242 240 238 237 238 239 239 235 228 222 216 210 206 202 198 195 193 191 192 193 192 191 189 187 185 185 182 180 179 178 177 177 176 177 178 179 179 183 195 211 220
243 243 241 240 238 237 236 235 232 228 223 217 212 207 202 196 194 192 192 193 192 191 190 186 183 181 180 178 176 176 176 176 178 176 174 175 176 181 194 209 221 226
241 241 240 239 238 235 234 233 230 227 222 217 212 206 201 197 194 191 191 191 190 187 184 180 177 174 173 173 172 174 175 176 176 173 171 173 178 191 210 221 221 220
241 240 239 237 235 234 233 232 230 226 222 217 210 206 202 197 193 190 188 188 187 185 180 175 174 171 170 170 171 174 175 175 175 173 176 184 192 211 223 223 221 221
241 239 237 235 233 231 230 230 230 226 221 215 208 203 199 195 192 190 188 188 186 184 180 176 174 171 170 170 172 175 176 176 180 180 184 197 206 217 220 217 224 235
241 237 235 233 230 228 228 228 227 224 218 212 205 199 195 193 191 190 189 187 184 181 178 174 172 169 168 172 174 177 179 179 180 181 187 201 208 211 214 222 238 255
243 238 234 232 228 226 226 225 223 219 213 207 202 197 195 192 190 188 186 183 180 178 175 171 169 168 169 173 177 179 179 177 177 184 198 208 209 213 219 233 252 267
244 240 235 232 228 225 223 221 218 213 209 205 202 198 194 191 189 186 182 179 177 174 171 169 169 169 171 174 178 179 176 178 187 197 207 211 214 223 229 238 255 267
243 240 236 233 229 226 223 219 215 210 207 204 201 197 192 188 187 184 180 177 174 171 170 169 169 169 170 172 174 175 177 184 192 195 204 211 216 226 231 240 258 267
243 241 238 234 231 227 223 218 213 208 204 201 198 193 189 186 185 182 178 174 172 171 170 168 168 168 170 172 173 177 181 184 188 192 202 211 218 230 236 246 259 267
244 242 240 237 233 227 222 216 210 206 201 198 195 192 188 184 181 177 175 172 171 171 170 168 169 170 173 175 173 174 177 179 187 195 203 212 219 232 244 256 265 276
243 241 239 236 232 225 218 212 207 203 199 195 193 191 186 181 177 174 172 172 172 172 172 172 174 176 176 173 170 171 176 182 193 200 206 215 223 232 254 275 286 295
241 239 235 231 226 219 213 207 203 200 197 192 189 187 184 179 176 173 171 172 173 173 175 178 181 182 178 173 173 175 180 187 194 200 204 211 225 248 270 287 298 304
238 235 230 225 218 212 206 202 199 195 192 188 184 182 181 177 175 174 173 174 175 177 182 185 186 183 176 172 174 175 181 187 189 198 213 230 258 279 290 298 307 311
237 232 226 219 212 207 203 199 196 192 188 185 182 180 178 176 175 177 178 179 182 185 188 189 185 179 172 171 175 176 180 186 195 214 241 270 286 297 304 309 315 318
235 230 221 214 207 203 200 197 194 190 186 183 181 179 178 178 179 182 184 186 189 191 191 188 181 176 174 174 178 181 186 198 222 252 275 293 302 307 313 317 320 319
231 225 216 209 203 200 197 194 191 189 186 183 181 180 181 183 185 187 188 189 190 191 190 185 178 175 177 180 185 191 205 225 254 278 291 302 308 311 314 316 316 316
226 218 211 205 200 198 195 192 190 187 185 184 183 184 186 188 189 189 189 189 189 190 187 182 179 181 185 191 198 208 227 249 270 285 293 300 304 307 310 312 313 314
220 212 206 201 198 195 193 191 189 187 186 186 187 189 191 191 190 189 189 188 187 185 184 181 183 188 193 200 209 222 243 262 279 289 297 301 304 308 311 312 313 314
214 207 202 198 194 193 191 189 188 187 188 189 191 193 192 191 190 189 188 186 183 183 186 187 189 194 200 211 224 240 258 275 287 294 299 304 306 309 311 312 312 311
207 202 199 196 193 192 190 189 189 190 191 192 194 194 193 191 190 188 186 184 183 186 190 193 198 204 213 227 242 258 270 280 289 295 299 303 305 307 308 309 309 309
203 200 198 197 195 193 192 192 192 193 195 196 196 195 193 191 189 186 185 185 186 190 195 201 209 216 228 242 252 264 275 283 289 295 299 301 304 305 306 307 308 309
202 200 199 198 197 195 194 194 195 196 197 197 197 196 193 190 187 185 186 187 191 196 202 211 222 229 238 250 258 268 279 286 292 297 299 300 302 303 305 307 307 307
201 200 200 200 199 198 197 196 196 197 197 197 197 196 193 190 188 188 190 193 198 205 210 218 230 238 246 256 266 275 284 289 294 297 299 301 303 303 305 306 305 305
199 199 200 201 201 199 198 197 196 196 196 197 196 194 193 192 191 193 196 200 206 213 219 226 235 245 254 264 273 281 287 291 295 298 300 301 302 303 304 305 305 307
198 199 201 203 203 201 198 197 197 197 197 197 196 195 195 195 196 199 202 207 213 220 225 232 240 250 261 271 278 284 288 291 295 298 298 299 301 302 305 306 307 306